Location: Beeston
(52.7000°N, 0.8167°E)
Time: 15:39:20
(UTC+00:00)

Helios 1B - Pass Details

Date: 15 May 2026
Orbit: 603 x 606 km, 98.2° (Epoch: 10 June)

Event Time Altitude Azimuth Distance (km) Brightness Sun altitude
Rises 23:40:36 0° 14° (NNE) 2,874 9.4 -18.2°
Reaches altitude 10° 23:42:47 10° 14° (NNE) 1,965 8.3 -18.2°
Maximum altitude 23:47:04 88° 286° (WNW) 612 4.4 -18.2°
Enters shadow 23:48:37 39° 198° (SSW) 914 4.9 -18.2°
